Change the Weather History Date:

Sunday, May 19, 2013

  Actual Average Record
Temperature  
Mean Temperature 78 °F -  
Max Temperature 89 °F 76 °F 89 °F (2013)
Min Temperature 68 °F 53 °F 38 °F (1953)
Cooling Degree Days 14    
Growing Degree Days 28 (Base 50)    
Moisture  
Dew Point 63 °F    
Average Humidity 64    
Maximum Humidity 79    
Minimum Humidity 41    
Precipitation  
Precipitation 0.17 in - - ()
Sea Level Pressure  
Sea Level Pressure 29.77 in    
Wind  
Wind Speed 11 mph (SE)    
Max Wind Speed 28 mph    
Max Gust Speed 39 mph    
Visibility 8 miles    
Events Rain    
Averages and records for this station are not official NWS values.
T = Trace of Precipitation, MM = Missing Value Source: NWS Daily Summary

Daily Weather History Graph

Daily Weather History Graph

Search for Another Location

Airport or City:

Trip Planner

Search our weather history database for the weather conditions in past years. The results will help you decide how hot, cold, wet, or windy it might be!

Date:

Astronomy

May. 19, 2013 Rise Set
Actual Time 5:44 AM CDT 8:21 PM CDT
Civil Twilight 5:12 AM CDT 8:52 PM CDT
Nautical Twilight 4:33 AM CDT 9:32 PM CDT
Astronomical Twilight 3:48 AM CDT 10:17 PM CDT
Moon 2:23 PM CDT (5/19) 2:10 AM CDT (5/19)
Length of Visible Light 15h 39m
Length of Day
14h 36m
Waxing Gibbous, 65% of the Moon is Illuminated
May 19
Waxing Gibbous
May 24
Full
May 31
Last Quarter
Jun 8
New
Jun 16
First Quarter

Hourly Weather History & Observations

Time (CDT) Temp. Heat Index Dew Point Humidity Pressure Visibility Wind Dir Wind Speed Gust Speed Precip Events Conditions
12:15 AM 72.5 °F - 59.9 °F 64% 29.86 in 10.0 mi SE 9.2 mph - N/A   Clear
12:35 AM 72.5 °F - 60.1 °F 65% 29.86 in 10.0 mi SE 9.2 mph - N/A   Clear
12:55 AM 72.5 °F - 60.1 °F 65% 29.85 in 10.0 mi SE 9.2 mph - N/A   Clear
1:15 AM 72.0 °F - 60.3 °F 67% 29.87 in 10.0 mi SSE 6.9 mph - N/A   Clear
1:35 AM 72.9 °F - 60.4 °F 65% 29.88 in 10.0 mi SSE 9.2 mph - N/A   Mostly Cloudy
1:55 AM 73.4 °F - 60.8 °F 65% 29.88 in 10.0 mi SSE 10.4 mph - N/A   Overcast
2:15 AM 74.1 °F - 61.0 °F 63% 29.86 in 10.0 mi SSE 11.5 mph - N/A   Overcast
2:35 AM 74.7 °F - 61.0 °F 62% 29.86 in 10.0 mi SSE 11.5 mph - N/A   Overcast
2:55 AM 74.5 °F - 61.0 °F 63% 29.87 in 10.0 mi South 11.5 mph - N/A   Scattered Clouds
3:15 AM 74.8 °F - 61.3 °F 63% 29.87 in 10.0 mi SSE 9.2 mph - N/A   Mostly Cloudy
3:35 AM 74.3 °F - 61.3 °F 64% 29.86 in 10.0 mi SE 8.1 mph - N/A   Overcast
3:55 AM 74.5 °F - 61.7 °F 64% 29.85 in 10.0 mi SE 10.4 mph - N/A   Overcast
4:15 AM 73.8 °F - 61.9 °F 66% 29.84 in 10.0 mi SE 10.4 mph - N/A   Mostly Cloudy
4:35 AM 73.6 °F - 62.2 °F 68% 29.83 in 10.0 mi SE 10.4 mph - N/A   Mostly Cloudy
4:55 AM 73.4 °F - 62.6 °F 69% 29.84 in 10.0 mi SE 9.2 mph - N/A   Mostly Cloudy
5:15 AM 73.2 °F - 62.6 °F 69% 29.83 in 10.0 mi SSE 9.2 mph - N/A   Overcast
5:35 AM 72.1 °F - 64.0 °F 76% 29.83 in 7.0 mi SE 6.9 mph - 0.05 in Rain Light Rain
5:55 AM 72.0 °F - 64.4 °F 77% 29.84 in 7.0 mi Calm Calm - 0.05 in Rain Light Rain
6:15 AM 71.8 °F - 64.2 °F 77% 29.85 in 7.0 mi East 10.4 mph - N/A   Overcast
6:35 AM 71.6 °F - 64.0 °F 77% 29.86 in 7.0 mi SE 9.2 mph - N/A   Mostly Cloudy
7:15 AM 71.6 °F - 64.4 °F 78% 29.84 in 5.0 mi SSE 6.9 mph - N/A   Haze
7:35 AM 71.6 °F - 64.6 °F 78% 29.84 in 4.0 mi ESE 8.1 mph - N/A   Haze
7:55 AM 72.1 °F - 64.6 °F 77% 29.83 in 5.0 mi ESE 11.5 mph - N/A   Haze
8:15 AM 72.9 °F - 64.9 °F 76% 29.83 in 5.0 mi SE 8.1 mph - N/A   Haze
8:35 AM 73.6 °F - 65.1 °F 75% 29.82 in 5.0 mi ESE 10.4 mph - N/A   Haze
8:55 AM 74.3 °F - 65.3 °F 73% 29.83 in 5.0 mi SE 11.5 mph - N/A   Haze
9:15 AM 75.6 °F - 66.2 °F 73% 29.82 in 5.0 mi SE 11.5 mph - N/A   Haze
9:55 AM 78.1 °F - 66.6 °F 68% 29.84 in 5.0 mi SE 16.1 mph - N/A   Haze
10:15 AM 80.1 °F 82.4 °F 67.5 °F 65% 29.85 in 5.0 mi South 15.0 mph - N/A   Haze
10:35 AM 79.5 °F - 67.1 °F 66% 29.85 in 5.0 mi South 18.4 mph 23.0 mph N/A   Haze
10:55 AM 80.8 °F 83.2 °F 67.3 °F 63% 29.85 in 5.0 mi South 12.7 mph 20.7 mph N/A   Haze
11:15 AM 80.8 °F 83.5 °F 67.8 °F 65% 29.85 in 5.0 mi South 15.0 mph 19.6 mph N/A   Haze
11:35 AM 77.9 °F - 68.4 °F 72% 29.82 in 2.5 mi SE 19.6 mph 25.3 mph 0.09 in Rain Heavy Rain
11:55 AM 74.5 °F - 66.6 °F 76% 29.78 in 7.0 mi East 18.4 mph 23.0 mph 0.11 in Rain Light Rain
12:15 PM 73.9 °F - 62.1 °F 66% 29.75 in 10.0 mi ESE 11.5 mph - N/A   Clear
12:35 PM 74.5 °F - 63.5 °F 68% 29.77 in 10.0 mi East 8.1 mph - N/A   Clear
12:55 PM 78.3 °F - 68.5 °F 72% 29.75 in 7.0 mi East 8.1 mph - N/A   Clear
1:15 PM 82.4 °F 86.5 °F 70.5 °F 67% 29.76 in 5.0 mi SE 11.5 mph 16.1 mph N/A   Haze
1:35 PM 83.3 °F 87.4 °F 70.2 °F 64% 29.76 in 5.0 mi SSE 16.1 mph - N/A   Haze
2:15 PM 83.3 °F 86.9 °F 68.9 °F 62% 29.75 in 5.0 mi SE 15.0 mph 24.2 mph N/A   Haze
2:35 PM 84.6 °F 87.9 °F 68.4 °F 58% 29.74 in 7.0 mi SE 17.3 mph 24.2 mph N/A   Scattered Clouds
2:55 PM 85.6 °F 88.2 °F 66.6 °F 53% 29.74 in 10.0 mi SSE 17.3 mph 23.0 mph N/A   Clear
3:35 PM 86.7 °F 88.4 °F 64.9 °F 48% 29.72 in 10.0 mi SSE 19.6 mph 24.2 mph N/A   Clear
3:55 PM 87.3 °F 89.5 °F 66.0 °F 49% 29.72 in 7.0 mi SSE 17.3 mph 24.2 mph N/A   Scattered Clouds
4:15 PM 87.6 °F 91.1 °F 68.0 °F 52% 29.71 in 7.0 mi SSE 15.0 mph - N/A   Mostly Cloudy
4:35 PM 89.6 °F 93.4 °F 68.2 °F 49% 29.69 in 7.0 mi SSE 18.4 mph 26.5 mph N/A   Scattered Clouds
4:55 PM 87.6 °F 90.4 °F 67.1 °F 50% 29.70 in 7.0 mi SSE 16.1 mph - N/A   Clear
5:15 PM 85.8 °F 89.1 °F 68.2 °F 55% 29.64 in 7.0 mi ESE 10.4 mph - N/A Rain Light Rain
5:35 PM 85.1 °F 87.7 °F 66.6 °F 54% 29.64 in 7.0 mi SSE 18.4 mph 28.8 mph N/A Rain Light Rain
5:55 PM 81.3 °F 81.3 °F 57.4 °F 44% 29.67 in 10.0 mi SSE 25.3 mph 36.8 mph N/A   Light Drizzle
6:15 PM 77.9 °F - 52.5 °F 41% 29.67 in 10.0 mi SE 20.7 mph 26.5 mph N/A   Scattered Clouds
6:35 PM 76.1 °F - 54.0 °F 46% 29.66 in 10.0 mi SE 11.5 mph - N/A   Clear
6:55 PM 74.8 °F - 56.1 °F 52% 29.64 in 10.0 mi ESE 9.2 mph - N/A   Clear
7:15 PM 74.5 °F - 58.1 °F 57% 29.65 in 10.0 mi ESE 10.4 mph - N/A   Clear
7:35 PM 75.2 °F - 59.7 °F 58% 29.65 in 10.0 mi SE 10.4 mph - N/A   Clear
7:55 PM 74.8 °F - 60.3 °F 60% 29.67 in 10.0 mi SE 10.4 mph - N/A   Clear
8:15 PM 75.2 °F - 59.9 °F 59% 29.64 in 10.0 mi East 11.5 mph - N/A   Scattered Clouds
8:35 PM 74.3 °F - 59.9 °F 61% 29.63 in 10.0 mi ESE 11.5 mph - N/A   Scattered Clouds
8:55 PM 74.3 °F - 59.7 °F 60% 29.63 in 10.0 mi ESE 13.8 mph - N/A   Clear
9:15 PM 77.5 °F - 60.8 °F 56% 29.62 in 10.0 mi ESE 19.6 mph - N/A   Mostly Cloudy
9:35 PM 77.9 °F - 61.2 °F 56% 29.62 in 10.0 mi ESE 19.6 mph 27.6 mph N/A   Overcast
9:55 PM 77.4 °F - 61.7 °F 58% 29.64 in 10.0 mi SE 19.6 mph 25.3 mph N/A   Overcast
9:57 PM 77.0 °F - 62.6 °F 61% 29.65 in 10.0 mi SE 18.4 mph - N/A   Overcast
10:15 PM 77.4 °F - 62.1 °F 59% 29.66 in 10.0 mi SE 13.8 mph 21.9 mph N/A   Mostly Cloudy
10:35 PM 77.9 °F - 61.5 °F 57% 29.76 in 7.0 mi West 27.6 mph 39.1 mph 0.01 in Rain Heavy Rain
11:15 PM 68.9 °F - 61.3 °F 77% 29.75 in 10.0 mi WSW 15.0 mph - N/A Rain Light Rain
11:35 PM 68.4 °F - 61.3 °F 78% 29.72 in 10.0 mi SW 6.9 mph - N/A Rain Light Rain
11:55 PM 68.2 °F - 61.5 °F 79% 29.71 in 10.0 mi Calm Calm - N/A   Scattered Clouds